DW9234 Weather Reports


time (UTC)temp
F
wind
direction
speed
knots
gust
knots
rain 1hr
in
rain 24hr
in
rain mn
in
humidity
%
barometer
mb
20260507021004 65 143 0.0 0.0 0.00 0.00 0.08 70 1010.5
20260507020004 65 143 0.0 0.0 0.00 0.00 0.08 70 1010.4
20260507015004 66 143 0.0 0.0 0.00 0.00 0.08 69 1010.7
20260507014004 66 137 0.0 1.7 0.00 0.00 0.08 69 1010.7
20260507013003 66 132 0.9 1.7 0.00 0.00 0.08 69 1010.8
20260507012004 66 127 0.0 0.0 0.00 0.00 0.08 68 1010.5
20260507011003 66 127 0.0 0.9 0.00 0.00 0.08 68 1010.5
20260507010003 66 126 0.0 1.7 0.00 0.00 0.08 68 1010.4
20260507005004 66 126 0.0 1.7 0.00 0.00 0.08 68 1010.3
20260507004004 67 157 0.0 0.0 0.00 0.00 0.08 67 1010.4
20260507002003 67 157 0.0 0.9 0.00 0.00 0.08 67 1010.3
20260507000003 68 74 0.0 0.9 0.00 0.00 0.08 66 1009.7
20260506235005 68 74 0.0 1.7 0.00 0.00 0.08 66 1009.5
20260506234004 68 74 0.0 1.7 0.00 0.00 0.08 65 1009.6
20260506233003 68 61 0.0 1.7 0.00 0.00 0.08 65 1009.6
20260506232004 68 355 1.7 2.6 0.00 0.00 0.08 64 1009.7
20260506230003 68 76 0.9 3.5 0.00 0.00 0.08 64 1009.3
20260506225004 68 231 0.0 1.7 0.00 0.00 0.08 64 1009.7
20260506224003 68 72 1.7 4.3 0.00 0.00 0.08 63 1009.6
20260506223004 69 114 0.0 5.2 0.00 0.00 0.08 63 1009.6
20260506222004 69 313 0.9 7.0 0.00 0.00 0.08 63 1009.7
20260506221003 69 20 3.5 3.5 0.00 0.00 0.08 63 1009.6
20260506220003 69 243 0.0 5.2 0.00 0.00 0.08 62 1009.3
20260506215005 69 74 3.5 3.5 0.00 0.00 0.08 62 1009.4
20260506214003 69 139 0.0 8.7 0.00 0.00 0.08 61 1009.3
20260506213004 69 332 0.9 7.8 0.00 0.00 0.08 61 1009.2
20260506212004 69 334 4.3 8.7 0.00 0.00 0.08 62 1009.2
20260506211003 69 28 2.6 4.3 0.00 0.00 0.08 62 1009.2
20260506210004 69 265 0.9 5.2 0.00 0.00 0.08 62 1009.1
20260506205004 69 39 3.5 7.0 0.00 0.00 0.08 62 1009.1
20260506203004 68 169 2.6 6.1 0.00 0.00 0.08 63 1009.0
20260506201003 67 327 0.9 5.2 0.00 0.00 0.08 65 1009.0
20260506200004 67 269 1.7 6.1 0.00 0.00 0.08 66 1008.9
20260506194003 66 97 0.0 7.8 0.00 0.00 0.08 67 1009.2
20260506193004 66 322 1.7 7.8 0.00 0.00 0.08 67 1009.4
20260506192003 65 80 1.7 8.7 0.00 0.00 0.08 68 1009.4
20260506191004 65 73 2.6 10.4 0.00 0.00 0.08 68 1009.7
20260506190005 65 62 2.6 6.1 0.00 0.00 0.08 69 1009.7
20260506185004 64 239 0.9 8.7 0.00 0.00 0.08 70 1009.8
20260506184003 64 314 2.6 6.1 0.00 0.00 0.08 71 1009.7
20260506183003 64 80 3.5 6.1 0.00 0.00 0.08 72 1009.7
20260506182004 63 90 3.5 7.0 0.00 0.00 0.08 73 1010.0
20260506181003 63 215 1.7 5.2 0.00 0.00 0.08 73 1010.0
20260506174003 63 77 3.5 7.8 0.00 0.00 0.08 75 1010.2
20260506173003 62 37 0.9 6.1 0.00 0.00 0.08 75 1010.1
20260506172004 62 85 0.9 6.1 0.00 0.00 0.08 74 1010.2
20260506171004 62 130 3.5 8.7 0.00 0.00 0.08 74 1010.5
20260506170004 62 84 0.9 4.3 0.00 0.00 0.08 74 1010.6
20260506165005 62 320 2.6 6.1 0.00 0.00 0.08 74 1010.4
20260506164004 63 106 4.3 7.8 0.00 0.00 0.08 74 1010.6
20260506163003 63 95 4.3 6.1 0.00 0.00 0.08 74 1010.6
20260506162003 62 61 1.7 7.0 0.00 0.00 0.08 73 1010.8
20260506160004 62 254 3.5 6.1 0.00 0.00 0.07 71 1010.8
20260506155004 63 57 0.9 7.0 0.00 0.00 0.05 71 1011.2
20260506154003 63 71 4.3 6.1 0.00 0.00 0.05 70 1011.5
20260506153003 63 215 3.5 5.2 0.00 0.00 0.04 68 1011.6
20260506152003 64 30 0.0 4.3 0.00 0.00 0.02 67 1011.8
20260506151004 64 140 2.6 8.7 0.00 0.00 0.02 66 1011.6
20260506150004 64 279 4.3 5.2 0.00 0.00 0.01 65 1011.4
20260506145004 65 85 1.7 4.3 0.00 0.00 0.01 63 1011.5
20260506144003 66 98 1.7 7.8 0.00 0.00 0.00 61 1011.6
20260506142004 67 52 1.7 7.8 0.00 0.00 0.00 57 1011.6
20260506135003 68 42 4.3 7.0 0.00 0.00 0.00 53 1011.5
20260506134003 68 79 5.2 9.6 0.00 0.00 0.00 54 1011.4
20260506133005 67 92 3.5 6.1 0.00 0.00 0.00 55 1011.3
20260506131004 66 355 3.5 7.0 0.00 0.00 0.00 56 1011.5
20260506130005 66 105 0.9 8.7 0.00 0.00 0.00 56 1011.5
20260506125003 66 69 1.7 9.6 0.00 0.00 0.00 57 1011.6
20260506124004 66 31 1.7 7.8 0.00 0.00 0.00 58 1011.7
20260506123003 66 295 1.7 9.6 0.00 0.00 0.00 57 1011.7
20260506122004 66 52 5.2 7.0 0.00 0.00 0.00 58 1011.6
20260506121004 66 100 4.3 9.6 0.00 0.00 0.00 58 1011.5
20260506120004 66 61 6.1 7.8 0.00 0.00 0.00 59 1011.4
20260506115003 66 68 0.9 7.0 0.00 0.00 0.00 59 1011.3
20260506114005 66 109 0.9 8.7 0.00 0.00 0.00 59 1011.3
20260506112003 65 60 0.0 10.4 0.00 0.00 0.00 59 1011.2
20260506105004 65 28 0.0 7.8 0.00 0.00 0.00 59 1011.1
20260506104004 65 322 1.7 7.0 0.00 0.00 0.00 59 1011.2
20260506103004 65 355 0.9 7.8 0.00 0.00 0.00 59 1011.2
20260506102004 65 61 6.1 7.8 0.00 0.00 0.00 59 1011.1
20260506101003 65 74 1.7 5.2 0.00 0.00 0.00 59 1011.0
20260506095005 65 107 1.7 7.0 0.00 0.00 0.00 59 1010.9
20260506094004 65 112 1.7 8.7 0.00 0.00 0.00 59 1011.0
20260506093005 66 324 0.9 6.1 0.00 0.00 0.00 58 1011.2
20260506092004 66 83 2.6 7.0 0.00 0.00 0.00 58 1011.1
20260506091004 66 132 0.9 7.8 0.00 0.00 0.00 58 1011.1
20260506090005 66 115 1.7 5.2 0.00 0.00 0.00 57 1011.1
20260506085004 67 60 4.3 5.2 0.00 0.00 0.00 57 1011.0
20260506083005 67 124 3.5 9.6 0.00 0.00 0.00 56 1011.1
20260506082004 67 126 1.7 7.0 0.00 0.00 0.00 56 1011.1
20260506081005 67 65 4.3 7.8 0.00 0.00 0.00 56 1011.2
20260506072005 66 59 0.9 5.2 0.00 0.00 0.00 58 1011.5
20260506071005 66 77 1.7 6.1 0.00 0.00 0.00 58 1011.5
20260506062005 66 94 0.9 5.2 0.00 0.00 0.00 58 1011.7
20260506061005 66 55 0.0 3.5 0.00 0.00 0.00 58 1011.8
20260506051005 67 92 1.7 6.1 0.00 0.00 0.00 54 1012.1
20260506045005 68 102 0.0 4.3 0.00 0.00 0.00 52 1012.3
20260506044004 68 94 4.3 4.3 0.00 0.00 0.00 51 1012.1
20260506043005 68 67 0.0 4.3 0.00 0.00 0.00 51 1012.2
20260506042005 68 93 0.0 5.2 0.00 0.00 0.00 50 1012.1
20260506041005 69 115 0.0 4.3 0.00 0.00 0.00 49 1012.1
20260506035005 69 109 0.9 3.5 0.00 0.00 0.00 48 1012.0
20260506034004 69 63 3.5 6.1 0.00 0.00 0.00 48 1011.8
20260506033005 69 95 1.7 5.2 0.00 0.00 0.00 47 1011.9
20260506032004 69 88 0.9 4.3 0.00 0.00 0.00 48 1011.9
20260506031004 69 10 1.7 7.0 0.00 0.00 0.00 47 1011.9
20260506030006 69 76 0.0 5.2 0.00 0.00 0.00 47 1012.0
20260506022005 70 263 0.9 6.1 0.00 0.00 0.00 45 1012.2